Regional Weather Roundup
Issued by NWS

Home | Current Version | Previous Version | Text Only | Print | Product List | Glossary Off
Versions: 1 2 3 4 5 6 7 8 9 10 11 12 13 14 15 16 17 18 19 20 21 22 23 24 25 26 27 28 29 30 31 32 33 34 35 36 37 38 39 40 41 42 43 44 45 46 47 48 49 50

427
ASUS43 KFSD 230410
RWRSD

WEATHER ROUNDUP FOR SOUTH DAKOTA
NATIONAL WEATHER SERVICE SIOUX FALLS SD
1100 PM CDT TUE AUG 22 2017

NOTE: "FAIR" INDICATES FEW OR NO CLOUDS BELOW 12,000 FEET WITH NO
SIGNIFICANT WEATHER AND/OR OBSTRUCTIONS TO VISIBILITY.


SDZ001>005-009-010-012>017-230500-
NORTHWEST AND NORTH CENTRAL SOUTH DAKOTA

CITY           SKY/WX    TMP DP  RH WIND       PRES   REMARKS
BUFFALO          N/A     67  46  47 E9        30.06R
FAITH            N/A     65  48  54 SE13      30.12R
MOBRIDGE       CLEAR     64  50  60 E10       30.11R
$$

SDZ012>016-024>037-041>051-057-063-072>074-230500-
SOUTHWEST AND SOUTH CENTRAL SOUTH DAKOTA

CITY           SKY/WX    TMP DP  RH WIND       PRES   REMARKS
RAPID CTY ARPT CLEAR     66  45  46 SE3       30.10S
PIERRE         CLEAR     63  50  62 E9        30.11R
CUSTER         CLEAR     61  46  57 CALM      30.24S
ELLSWORTH AFB  CLEAR     69  44  39 E8        30.10S
PHILIP         CLEAR     64  50  60 E9        30.10R
PINE RIDGE     CLEAR     73  48  41 S15G21    30.12S
SPEARFISH      FAIR      63  45  51 CALM      30.14S
WINNER         FAIR      65  53  65 SE12      30.14R
$$

SDZ004>011-016>023-039-040-230500-
NORTHEAST SOUTH DAKOTA

CITY           SKY/WX    TMP DP  RH WIND       PRES   REMARKS
ABERDEEN       CLEAR     54  50  86 CALM      30.13R
WATERTOWN      CLEAR     58  49  72 CALM      30.14R
BROOKINGS      CLEAR     57  51  80 CALM      30.15R
SISSETON         N/A     53  49  86 W6        30.11R
$$

SDZ017-020-022-023-036>040-048>070-230500-
SOUTHEAST SOUTH DAKOTA

CITY           SKY/WX    TMP DP  RH WIND       PRES   REMARKS
SIOUX FALLS    CLEAR     57  54  89 CALM      30.15R
HURON          CLEAR     57  51  80 CALM      30.13R
CHAMBERLAIN    CLEAR     62  55  79 CALM      30.14R
MITCHELL       CLEAR     63  51  65 S3        30.15R
YANKTON        CLEAR     63  54  72 CALM      30.15S
$$

ABBREVIATIONS USED IN REMARKS
   TC - TEMPERATURE IN CELSIUS
  WCI - WIND CHILL INDEX
   HX - HEAT INDEX
  VSB - VISIBILITY





USA.gov is the U.S. government's official web portal to all federal, state and local government web resources and services.